Location: Bidart
(43.4376°N, 1.5913°W)
Time: 04:42:14
(UTC+00:00)

USA 229 DEB - Pass Details

Date: 25 April 2026
Orbit: 844 x 1364 km, 63.4° (Epoch: 10 January)

Event Time Altitude Azimuth Distance (km) Brightness Sun altitude
Rises 22:43:22 0° 324° (NW) 3,969 7.8 -30.2°
Reaches altitude 10° 22:46:02 10° 329° (NNW) 3,079 7.0 -30.4°
Maximum altitude 22:53:25 57° 47° (NE) 1,462 4.4 -30.9°
Enters shadow 22:55:12 48° 90° (E) 1,628 4.4 -31.0°
